Location: Hannover
(52.3723°N, 9.7339°E)
Time: 18:17:19
(UTC+02:00)

ISS - Pass Details

Date: 21 March 2019
Orbit: 408 x 410 km, 51.6° (Epoch: 22 April)

Event Time Altitude Azimuth Distance (km) Brightness Sun altitude
Rises 20:22:26 0° 209° (SSW) 2,327 0.1 -16.7°
Reaches altitude 10° 20:24:56 10° 190° (S) 1,469 -1.1 -17.0°
Enters shadow 20:24:59 10° 189° (S) 1,454 -1.2 -17.0°
